Theta_e
288 288 287 287 287 287 287 287 287 287 287 286 286 285 284 284 283 283 282 282 282 282 281 281 281 281 280 280 280 280 280 280 280 280 280 280 280 280 280 279 279 279 278 278 278 278 278 278 278 278 279 279 279 280 280 280 280 281 281 282 282 283 283 284 284 284 285 285 285 285 285 286 285 285 286 285 285 285 284 284 284 285 285 285 285
287 287 287 287 287 287 287 287 287 286 286 285 285 284 284 283 282 282 282 282 281 281 281 280 280 280 280 280 280 280 279 279 279 279 279 279 279 279 279 279 278 278 278 277 277 277 277 277 277 278 278 278 278 278 278 279 279 279 280 280 281 281 282 282 283 283 283 283 283 284 284 284 284 285 285 285 285 285 285 284 284 284 285 285 285
287 287 287 287 287 287 287 286 286 286 285 285 284 284 283 283 282 282 282 281 281 281 280 280 280 280 279 279 279 279 279 279 279 279 279 279 278 278 278 278 278 277 277 276 276 276 276 276 277 277 277 277 277 277 277 278 278 278 279 279 279 280 280 280 281 282 282 282 282 283 283 283 283 284 284 284 284 284 284 285 285 285 285 285 285
287 287 287 287 286 287 286 286 286 285 285 284 284 283 283 283 283 282 282 281 281 280 280 280 279 279 279 279 279 278 278 278 278 278 278 278 278 278 278 278 277 277 276 275 275 275 275 276 276 276 276 276 276 277 277 277 277 277 277 278 278 278 279 279 280 280 281 281 281 282 282 282 282 282 283 283 283 283 284 284 284 285 285 285 285
287 287 286 286 286 286 286 285 285 284 284 284 284 283 283 283 283 282 282 281 281 280 280 279 279 278 278 278 278 278 278 278 278 277 277 277 277 277 277 276 276 275 275 274 274 274 275 275 275 275 275 275 276 276 276 276 276 276 277 277 277 278 278 278 279 279 279 280 280 280 281 281 281 281 282 282 282 283 283 284 284 284 285 285 285
286 287 286 286 286 286 285 285 284 284 284 283 283 283 283 283 283 282 282 281 280 280 279 279 278 278 278 277 277 277 277 277 277 277 277 277 277 276 276 275 275 274 274 274 274 274 274 274 274 274 274 275 275 275 275 275 275 275 276 276 276 277 277 277 277 278 278 278 279 279 279 280 280 280 280 281 281 282 283 283 283 284 284 284 285
286 286 286 286 286 286 285 285 284 284 283 283 283 283 283 283 283 282 282 281 280 279 279 278 278 277 277 277 277 277 277 277 276 276 276 276 275 275 274 274 273 273 273 274 274 274 274 273 274 274 274 274 274 274 274 274 274 274 275 275 275 275 276 276 276 276 276 277 277 278 278 278 279 279 280 280 281 281 282 282 283 283 283 284 284
287 286 286 286 286 285 285 284 284 284 283 283 283 283 283 283 283 282 281 281 280 279 278 278 277 277 277 277 276 276 276 276 276 275 275 275 275 274 273 272 272 273 273 273 273 273 273 273 273 273 273 273 273 273 273 273 273 273 274 274 274 274 274 275 275 275 275 275 276 276 276 277 277 278 278 279 280 281 281 281 282 282 283 283 283
287 286 286 285 285 285 285 284 284 283 283 283 283 283 283 283 282 282 281 280 280 279 278 278 277 277 276 276 276 276 276 276 275 275 275 275 274 273 272 271 272 273 273 273 273 273 272 272 272 272 272 272 272 272 272 272 272 273 273 273 273 273 273 273 274 274 274 275 275 275 276 276 276 277 277 277 278 278 279 279 279 280 280 281 281
287 286 285 285 285 285 284 284 284 283 283 283 282 283 283 282 282 281 280 280 279 278 278 277 277 276 276 276 276 276 276 275 275 275 274 274 274 272 272 272 272 272 272 273 272 272 272 272 272 272 271 271 271 271 271 272 272 272 272 273 273 272 273 273 273 273 274 274 274 275 275 275 276 276 276 276 276 277 277 277 278 278 279 279 279
286 285 285 285 285 284 284 284 284 283 283 282 282 282 282 282 281 280 280 279 278 278 277 277 276 276 276 275 275 275 275 275 275 275 274 274 273 272 271 272 272 272 272 272 272 272 272 271 271 271 270 270 270 270 271 271 271 271 272 272 272 272 272 272 273 273 273 273 274 274 274 274 275 275 275 275 276 276 276 277 277 278 278 279 279
286 285 285 285 284 284 284 284 283 283 282 282 282 283 282 281 280 279 279 278 278 277 277 276 276 275 275 275 275 275 275 274 274 274 274 273 273 272 271 271 272 272 272 272 272 271 271 270 270 270 270 270 270 270 270 270 271 271 271 271 271 272 272 272 273 273 273 273 274 274 274 274 274 274 275 275 275 276 276 276 276 277 277 278 278
285 285 285 284 284 284 284 284 283 282 282 282 283 282 282 280 279 278 278 277 277 276 276 275 275 275 275 275 274 274 274 274 274 274 273 273 273 272 271 271 271 271 271 271 271 270 270 270 270 270 270 270 270 270 270 270 270 270 270 271 271 271 272 273 273 273 274 274 274 274 274 274 274 274 275 275 275 275 275 276 276 276 277 277 278
284 284 284 284 284 284 284 283 282 282 282 282 282 282 281 279 278 277 277 277 276 276 275 275 275 274 274 274 274 274 274 274 273 273 273 273 272 271 271 271 271 270 270 270 270 270 269 269 269 269 269 270 270 270 270 270 270 270 271 271 271 272 272 273 273 274 274 274 274 274 274 274 274 274 275 275 275 275 275 276 276 277 277 277 277
284 284 284 283 284 284 284 283 282 282 282 282 281 281 280 278 277 277 276 276 276 275 275 274 274 274 274 273 273 273 273 273 273 273 273 272 271 270 270 270 270 269 270 269 269 269 269 269 269 269 269 270 270 270 270 271 271 271 271 272 272 272 273 273 273 274 274 274 274 274 274 274 275 275 275 275 275 276 276 277 277 277 277 277 277
284 283 283 283 284 284 283 283 282 282 282 281 281 280 279 277 277 276 276 276 275 275 274 274 273 273 273 273 273 273 273 273 273 272 272 271 270 269 269 269 269 269 269 269 269 269 269 269 269 269 270 270 270 271 271 272 272 272 272 273 273 273 273 274 274 274 275 275 275 275 275 275 276 276 276 276 277 277 277 277 277 277 276 276 276
284 284 283 283 284 284 283 283 282 282 281 281 280 279 278 277 276 276 276 275 275 274 274 273 273 273 273 272 272 272 273 272 272 272 271 271 270 268 269 269 269 269 269 269 269 269 269 270 270 270 270 270 271 271 272 272 273 273 274 274 274 274 274 275 275 275 275 276 276 276 276 276 276 276 276 276 277 277 277 276 276 276 276 276 276
284 284 283 283 284 283 283 282 282 281 280 280 279 278 278 277 276 276 275 275 274 274 273 273 272 272 272 272 272 272 272 272 272 272 271 270 269 268 269 269 269 269 269 269 269 270 270 270 270 271 271 271 271 272 273 273 274 274 274 275 275 275 275 275 275 275 276 276 276 276 276 276 276 276 276 276 276 276 276 276 276 276 276 276 276
284 283 283 283 283 283 282 282 281 280 280 279 279 278 277 276 276 275 275 274 273 273 272 272 272 272 272 272 271 271 272 272 271 271 271 270 269 269 269 269 269 269 269 269 270 270 270 271 271 271 272 272 273 273 274 274 274 275 275 275 275 276 276 276 276 276 276 276 276 276 276 276 276 275 275 275 275 275 275 275 275 275 275 275 275
284 283 283 283 283 282 282 281 281 280 279 279 278 278 277 276 275 275 274 273 273 272 272 272 271 271 271 271 271 271 271 271 271 271 270 269 268 269 270 270 270 270 270 270 270 271 271 271 271 272 272 273 273 274 274 274 275 275 275 275 276 276 276 276 276 276 276 276 276 276 275 275 275 275 275 275 275 275 275 275 275 274 274 275 275
283 282 283 282 282 282 281 280 280 279 279 278 277 277 276 275 275 274 273 273 272 271 271 271 271 271 271 271 271 271 271 271 270 270 270 269 268 269 270 270 270 270 271 271 271 271 271 272 272 272 272 273 273 274 274 275 275 275 275 276 276 276 276 276 275 275 275 274 274 274 274 274 274 274 274 274 274 274 274 274 274 274 274 274 274
282 282 282 282 281 281 280 280 279 279 278 278 277 276 275 275 274 273 272 272 271 271 271 270 270 270 270 270 271 271 270 270 270 270 270 268 268 269 270 270 271 271 271 272 272 272 272 272 272 272 273 273 274 274 275 275 275 275 275 275 275 275 275 274 273 273 273 273 273 273 273 273 273 273 273 274 274 274 274 274 274 273 273 273 273
282 282 282 281 281 280 280 279 279 278 278 277 276 275 274 274 273 272 272 271 270 270 270 270 270 269 269 270 270 270 270 271 270 269 268 268 269 270 270 271 271 272 272 272 272 272 272 272 272 273 273 274 274 274 274 274 274 274 274 274 274 273 273 272 271 271 271 271 271 272 272 272 272 273 273 273 273 273 273 273 273 273 273 273 273
281 281 281 281 280 279 279 278 278 277 276 276 275 274 273 273 272 271 271 270 270 269 269 269 269 269 268 268 269 269 269 269 269 267 267 268 269 270 270 271 271 272 272 272 272 272 272 272 273 273 273 273 273 273 273 272 272 272 272 272 271 271 270 270 269 269 270 270 270 270 271 271 272 272 272 272 272 272 272 272 273 273 273 273 273
281 281 280 280 279 279 278 277 277 276 276 275 274 273 273 272 271 271 270 269 269 269 268 268 268 268 267 267 267 267 267 267 267 267 267 268 269 269 270 271 272 272 272 272 272 272 272 272 272 272 271 271 271 270 270 270 270 270 270 269 269 269 269 269 269 269 269 269 270 270 270 271 271 271 271 271 272 272 272 272 272 273 273 273 273
280 280 279 279 278 277 277 276 276 275 275 274 273 272 272 271 270 270 269 269 268 268 268 268 268 267 266 265 266 266 266 267 267 267 267 268 269 270 270 271 272 272 272 271 271 270 270 270 269 269 269 268 268 268 267 267 268 268 267 267 267 267 267 267 267 267 268 268 269 269 270 270 270 270 271 271 271 271 272 272 272 273 273 274 274
279 278 278 277 277 276 276 275 275 274 273 273 272 271 271 270 269 269 269 268 268 268 268 267 267 266 265 265 265 266 266 267 267 267 268 268 269 270 271 271 272 271 270 270 269 269 268 268 267 267 267 267 266 266 266 266 266 266 265 265 265 265 266 265 265 266 266 267 267 268 268 269 269 269 270 270 270 271 271 272 272 273 273 274 274
278 277 277 276 276 275 274 274 273 273 272 272 271 270 270 269 269 269 268 268 267 267 267 266 266 266 265 265 266 266 267 267 267 268 268 269 270 271 271 272 271 270 269 269 269 268 267 267 266 266 265 265 265 265 265 265 264 264 264 264 264 264 264 264 265 265 265 266 266 267 267 267 268 268 268 269 269 270 271 272 272 273 273 274 274
276 276 276 275 275 274 273 272 272 272 271 271 270 269 269 269 268 268 268 268 268 267 266 266 266 266 266 266 266 267 267 267 268 268 269 270 270 271 271 271 271 270 269 269 268 267 266 266 265 264 264 264 264 264 264 264 264 264 264 264 264 264 264 264 264 264 265 265 265 266 266 266 267 267 268 268 269 270 271 271 272 272 273 273 274
275 275 275 274 273 273 272 272 272 271 270 270 269 269 268 268 268 268 268 268 268 267 266 266 267 267 267 267 267 267 267 268 268 269 269 270 270 271 271 271 270 269 268 268 267 266 265 265 264 263 263 264 264 264 264 263 263 264 264 264 264 264 264 264 264 264 264 265 265 265 265 266 266 267 267 268 269 269 270 271 271 272 272 273 274
275 274 274 273 273 273 272 272 271 270 269 269 268 268 267 267 267 267 267 267 267 267 266 266 267 267 267 267 267 267 267 268 268 268 269 269 270 271 270 270 269 268 267 266 266 265 265 264 263 263 263 263 263 263 263 263 263 263 263 263 264 264 264 264 264 264 264 264 265 265 265 266 266 267 267 268 268 269 269 270 270 271 272 273 273
275 275 274 274 273 272 271 270 269 269 268 267 267 266 266 267 267 267 266 266 266 266 266 266 266 266 266 267 267 266 267 267 268 268 269 269 270 270 269 268 267 267 266 265 265 265 264 263 263 263 262 262 262 262 262 262 262 262 263 263 263 264 264 264 264 264 264 264 265 265 266 266 267 267 267 267 268 268 269 269 270 270 271 272 273
275 275 275 274 272 271 270 269 268 268 267 266 266 266 265 265 266 266 267 267 266 266 266 266 265 265 265 265 265 266 266 267 267 268 268 269 269 268 268 267 266 265 265 265 265 264 262 262 262 262 261 262 262 261 262 262 262 262 262 263 263 263 264 264 264 264 264 265 265 266 266 266 266 267 267 267 267 268 268 268 269 270 271 271 272
274 274 274 273 272 271 270 269 268 267 266 266 265 265 265 265 265 265 266 266 267 267 267 266 265 265 265 265 264 264 265 266 266 267 268 268 268 267 266 266 266 265 265 265 264 263 261 261 261 261 261 261 261 261 261 261 262 262 262 263 263 263 264 264 265 265 265 265 266 266 266 266 266 267 267 267 267 267 268 268 269 269 270 271 271
273 273 272 271 271 269 268 267 267 266 266 265 265 265 265 264 264 264 264 265 266 267 267 267 266 265 265 265 264 264 264 265 266 267 268 267 266 265 265 265 265 265 265 265 263 262 261 261 261 261 261 261 261 261 261 261 261 262 262 263 263 264 264 264 265 265 265 266 266 267 267 267 267 267 267 267 267 267 267 268 268 269 270 270 271
272 271 271 270 269 268 267 266 266 265 265 265 265 264 264 264 263 263 263 263 264 265 266 267 267 266 265 264 264 264 264 264 265 266 266 266 265 265 264 264 264 265 265 264 263 261 261 261 260 260 261 261 261 261 261 261 261 262 262 263 263 263 264 264 265 266 266 267 267 267 267 267 267 267 267 267 267 267 267 268 268 269 269 270 270
272 271 270 269 268 267 266 266 265 265 265 264 264 264 264 264 263 263 263 263 263 264 265 265 266 266 265 264 264 264 264 264 265 265 265 264 264 263 263 263 263 263 264 263 262 262 261 261 261 261 261 261 261 261 261 261 262 262 263 263 263 264 264 265 266 266 267 267 267 267 267 267 267 267 267 267 267 267 267 268 268 269 269 269 270
271 270 269 269 267 266 266 265 265 264 264 264 264 264 263 263 263 262 262 263 263 263 263 263 264 264 265 264 264 264 264 264 264 264 264 264 263 263 263 263 262 262 263 263 262 261 262 262 262 261 261 261 261 262 262 262 262 262 263 263 263 264 264 265 266 267 267 267 267 266 266 266 267 267 267 267 267 267 267 268 268 268 269 269 269
268 268 267 266 266 265 265 265 264 264 264 264 264 263 263 262 262 262 262 263 263 262 263 263 263 264 264 264 263 263 263 263 263 263 263 264 263 263 263 263 262 262 262 262 262 261 261 261 261 261 262 262 262 262 262 262 263 263 263 263 263 263 264 265 266 266 267 267 266 266 266 266 266 266 266 267 267 267 267 267 268 268 268 269 269
267 266 265 264 264 264 264 264 264 264 264 263 263 263 262 262 262 262 262 262 262 262 263 263 263 264 263 263 262 262 262 262 262 262 262 263 263 263 263 263 262 262 262 262 262 261 261 261 262 262 262 262 262 262 263 263 263 263 263 263 263 263 264 265 266 266 266 266 266 266 266 266 266 266 266 266 267 267 267 267 268 268 268 269 269
267 266 265 264 264 264 264 264 264 264 263 263 263 262 262 262 262 262 262 261 262 262 262 263 263 264 263 262 262 261 261 261 262 262 262 262 262 263 263 263 262 262 262 262 262 262 262 262 262 262 262 262 262 262 262 263 263 263 263 263 263 263 263 265 266 266 266 266 266 266 265 265 265 265 266 266 266 266 267 267 267 267 268 268 269
266 266 265 264 264 264 264 264 264 263 263 262 262 262 262 262 262 261 261 261 262 262 262 263 264 263 263 262 262 261 261 261 261 261 262 262 262 263 263 263 263 263 263 262 262 262 262 262 262 262 262 262 262 262 262 263 262 263 263 263 263 263 263 264 265 266 266 266 266 266 265 265 265 265 265 265 266 266 266 266 266 267 268 268 269
266 265 265 264 264 264 263 263 263 262 262 262 262 262 262 262 261 261 261 261 262 262 262 262 263 263 263 263 262 261 261 261 261 261 262 262 262 263 263 263 262 262 262 262 262 262 262 262 262 262 262 262 262 262 262 262 262 262 263 263 263 263 263 264 265 265 266 266 266 266 266 265 265 265 265 265 265 265 265 266 266 267 267 268 268
265 265 264 264 263 263 263 262 262 262 262 262 262 262 261 261 261 261 261 261 261 261 261 262 262 262 263 263 262 262 262 262 262 262 262 262 262 263 263 262 262 262 262 262 262 262 262 262 262 262 262 262 262 262 262 262 262 263 263 263 263 263 263 264 264 265 265 265 266 266 266 265 265 265 264 264 264 265 265 265 266 266 267 267 268
265 264 263 263 262 262 262 262 262 262 262 262 262 262 261 261 261 261 261 261 261 261 261 261 261 261 262 262 262 262 262 262 262 262 262 262 262 262 262 262 262 262 262 262 262 262 262 261 262 262 262 262 262 262 263 263 263 263 263 263 263 263 263 264 264 265 265 265 265 265 266 265 265 265 264 264 264 264 265 265 265 265 266 267 267
264 264 263 263 262 262 262 262 262 262 261 261 261 261 261 261 261 261 261 261 261 260 260 260 261 261 261 261 261 261 261 261 261 261 262 262 262 262 262 261 261 262 262 262 262 262 262 261 261 262 262 262 262 263 263 263 263 263 263 263 263 263 264 264 264 265 265 265 265 265 266 266 265 265 265 265 264 264 264 264 265 265 265 266 266
263 263 263 262 262 262 261 261 261 261 261 261 261 261 261 261 261 261 261 261 261 260 260 260 260 261 261 261 261 261 261 261 261 261 262 262 262 262 261 261 261 261 262 262 262 262 262 262 262 262 262 262 262 262 262 263 263 263 263 263 263 263 264 264 264 264 265 265 265 265 266 266 265 265 265 265 264 264 264 264 265 265 265 265 266
262 262 262 262 261 261 261 261 261 261 261 261 261 261 261 261 261 261 261 261 260 260 260 260 260 260 261 261 261 261 261 261 261 261 262 262 262 262 262 261 262 262 262 262 262 262 262 262 262 262 262 262 262 262 262 262 262 263 263 263 263 263 263 264 264 264 265 265 265 265 265 266 265 265 265 265 265 264 264 264 265 265 265 265 265
262 262 261 261 261 261 261 261 261 261 261 261 261 261 261 260 260 260 261 261 261 261 261 261 261 261 261 261 261 261 261 261 261 262 262 262 262 262 262 262 261 261 261 261 262 262 262 262 262 262 262 262 262 262 262 262 262 262 263 263 263 263 263 263 264 264 265 264 264 265 265 266 266 266 265 265 265 265 264 264 265 265 265 265 265
261 261 261 261 261 261 261 261 261 261 261 261 261 261 261 261 261 261 261 261 261 261 261 261 261 261 261 261 261 261 261 261 261 261 262 262 262 262 261 261 261 261 261 261 261 261 261 261 261 261 261 261 261 262 262 262 262 262 262 262 262 263 263 263 264 264 264 264 264 264 265 265 266 266 265 265 265 265 265 264 265 265 265 265 265
261 261 261 261 261 261 261 261 261 261 261 261 261 261 261 261 261 261 261 261 261 261 261 261 260 260 261 261 261 261 261 261 261 261 261 261 261 261 261 261 261 261 261 261 261 261 261 261 261 261 261 261 261 261 261 261 262 262 262 262 262 262 262 263 263 264 264 264 264 264 265 265 266 266 266 265 265 265 265 265 265 265 265 265 265
Wind_Speed
19 18 17 15 14 13 12 11 10 9 8 7 7 8 8 8 8 8 8 8 9 9 10 10 11 12 13 13 14 15 16 17 18 18 19 19 19 19 20 20 20 19 19 19 19 18 18 16 16 15 14 14 14 13 14 14 14 15 14 14 16 14 15 17 17 21 24 20 21 23 20 21 25 24 23 26 26 26 28 30 31 31 31 32 35
19 18 17 15 13 12 10 9 8 7 6 6 6 7 7 7 7 8 8 9 10 10 11 12 13 13 14 15 15 16 17 17 18 18 18 19 19 20 20 20 20 19 19 19 19 18 17 15 14 14 13 14 14 14 14 14 14 15 14 14 17 16 15 18 19 20 25 25 22 23 21 19 23 23 21 23 24 24 26 28 28 29 30 31 32
20 18 16 15 13 11 9 8 7 6 5 5 5 5 6 7 8 10 10 11 12 12 13 14 14 15 15 16 16 16 17 17 18 18 18 18 19 19 19 19 19 19 19 19 18 18 16 14 13 13 14 14 14 13 13 13 13 14 15 15 17 18 16 17 20 21 25 28 25 23 22 19 20 22 22 23 25 25 25 26 25 26 28 28 28
20 18 17 15 13 11 9 8 7 5 4 3 3 5 7 8 9 10 10 11 12 12 13 14 14 14 15 15 16 16 16 17 17 17 18 18 18 18 19 19 19 19 19 19 17 16 14 13 13 13 13 14 14 13 12 13 13 14 16 16 16 18 17 16 18 21 23 27 27 24 22 21 21 22 22 23 25 25 25 25 25 24 24 23 23
21 19 17 16 14 12 10 9 7 6 4 3 3 5 7 8 8 9 10 10 11 12 13 13 13 14 14 14 15 15 16 16 17 17 17 17 18 18 19 19 19 19 19 18 16 14 12 12 13 13 13 13 13 13 13 14 15 15 15 16 16 16 17 17 18 20 22 26 28 26 24 23 22 21 21 22 25 25 24 23 23 24 24 24 23
22 20 18 17 15 13 11 10 8 6 4 2 3 4 5 7 8 9 10 11 12 13 14 14 14 14 14 15 15 15 16 16 16 17 17 17 18 18 19 19 19 19 19 16 14 13 13 13 13 13 13 13 13 14 14 15 16 16 16 16 16 16 17 18 18 19 21 24 27 27 25 23 22 21 20 21 23 25 25 24 24 23 23 24 23
23 22 20 18 16 15 13 11 8 6 4 2 2 3 5 7 9 10 11 12 13 14 14 15 15 15 15 15 15 15 15 16 16 17 17 17 18 18 19 19 19 19 17 15 14 14 14 14 14 13 13 13 14 14 16 16 16 16 16 16 17 17 17 18 17 18 20 22 24 25 24 23 22 21 20 20 21 22 22 23 24 23 21 22 24
25 23 21 19 17 16 14 11 9 6 4 2 1 3 5 7 9 10 12 13 14 14 15 15 15 16 15 15 15 15 15 16 16 17 17 18 17 18 19 19 19 17 14 12 13 13 13 14 14 13 13 13 14 16 17 18 18 17 16 16 17 17 17 17 18 18 19 21 22 22 23 23 21 20 20 19 19 19 18 20 23 24 23 23 24
26 25 23 21 19 17 14 11 9 6 3 1 1 3 6 8 9 10 12 13 14 15 15 16 16 16 16 16 15 15 15 15 16 16 16 17 17 18 20 19 17 16 13 11 11 12 13 14 14 14 14 16 17 18 18 18 18 18 17 16 17 18 18 18 18 18 19 19 20 20 21 21 20 20 20 19 19 21 22 22 24 25 26 26 26
27 26 24 22 20 17 14 11 9 6 3 2 2 4 6 8 9 11 12 13 14 15 15 16 16 15 15 16 15 15 15 15 15 15 15 15 16 17 19 18 15 14 13 12 11 12 13 13 14 16 17 18 18 18 17 17 17 18 18 17 16 17 18 18 18 18 19 19 20 19 20 21 20 20 20 20 20 22 23 22 23 25 24 24 26
28 27 25 23 20 17 14 11 8 6 4 3 2 5 7 9 10 11 12 13 14 15 15 15 15 15 15 15 15 15 15 15 15 15 14 14 15 16 17 17 14 12 13 13 12 12 13 14 16 17 17 17 17 17 17 17 17 17 17 16 16 17 18 19 19 19 19 20 21 20 20 22 22 21 22 21 20 21 22 21 22 23 22 20 21
28 27 25 23 20 17 14 11 8 6 5 3 4 6 8 9 10 11 12 13 14 14 15 15 15 15 15 16 16 15 15 15 15 15 14 13 14 15 15 15 13 12 13 13 13 13 15 16 16 16 16 16 17 18 18 17 16 16 17 16 16 17 17 19 20 21 21 22 23 22 21 23 24 21 20 20 20 21 22 22 23 23 23 21 22
29 27 25 22 20 17 14 11 9 7 4 3 5 7 9 10 11 11 12 13 14 15 15 15 15 15 16 16 16 15 15 15 15 15 15 14 14 14 14 14 14 13 14 13 13 13 15 16 17 17 17 17 18 18 17 17 17 17 17 16 17 19 20 21 23 24 25 25 26 25 23 23 23 21 20 21 23 24 23 23 23 23 24 24 24
29 27 25 22 19 16 14 11 9 7 5 5 6 8 9 10 11 12 13 14 15 15 15 16 15 15 16 17 17 16 15 15 15 15 15 15 14 13 14 15 14 14 13 12 12 13 14 15 17 18 19 19 19 18 18 19 19 18 17 18 21 22 23 24 24 25 25 24 25 26 24 23 24 24 23 23 25 26 25 24 24 25 27 28 28
29 27 25 22 20 17 14 12 9 7 6 6 7 9 10 11 12 13 13 14 15 16 16 17 16 16 16 17 18 17 15 15 16 15 15 15 14 13 14 15 14 13 13 12 12 13 14 15 17 19 20 21 20 20 21 21 21 21 21 24 27 26 24 24 25 26 25 24 25 26 26 25 26 27 26 26 27 28 26 27 27 27 29 29 28
29 27 25 23 21 18 15 12 10 8 8 8 8 9 10 11 12 13 14 15 16 16 16 17 17 17 17 17 18 18 16 15 16 16 15 14 13 13 14 13 12 13 13 13 13 13 14 16 17 19 21 23 22 22 23 23 23 25 28 31 33 32 29 27 26 27 28 28 28 29 29 30 31 31 30 28 29 29 28 29 29 26 26 26 25
30 28 27 24 21 19 15 13 11 9 9 9 9 10 11 12 13 14 15 16 16 17 17 17 17 17 17 17 18 19 17 16 16 15 14 13 12 13 13 12 12 13 14 14 15 14 14 16 18 21 23 24 24 24 24 25 26 28 31 33 33 31 28 26 24 27 32 34 33 33 32 32 31 31 30 29 29 30 30 30 27 25 25 21 19
31 30 28 25 22 19 16 13 12 11 10 10 10 10 11 12 13 14 15 17 17 17 18 18 18 18 17 17 18 19 19 17 15 15 14 12 11 12 12 12 13 14 14 15 15 15 17 19 22 23 23 23 25 26 26 27 27 29 30 31 30 28 26 25 24 25 29 30 30 31 31 28 26 26 27 28 29 28 28 28 26 25 25 21 19
34 32 29 25 22 19 16 14 13 12 11 10 10 10 12 12 13 15 16 17 18 18 18 19 19 18 17 17 17 18 19 17 15 15 14 12 10 11 12 13 14 15 15 16 18 20 22 23 23 22 23 25 26 27 27 26 27 29 30 29 29 27 25 25 25 25 25 25 25 26 25 22 21 22 24 25 26 25 25 26 25 24 24 24 23
35 31 28 25 22 19 17 15 13 12 11 10 10 11 12 13 14 15 16 17 18 18 18 18 19 19 17 17 17 17 18 18 16 15 14 11 10 11 12 13 15 16 17 20 23 25 24 22 21 21 22 24 26 26 27 27 29 31 31 29 27 26 25 25 25 23 22 21 20 20 20 20 20 21 22 23 23 23 22 22 22 22 23 24 24
33 30 27 25 22 19 17 15 13 12 11 11 11 12 13 14 15 16 17 17 17 18 18 18 20 20 18 17 17 16 17 18 17 16 14 11 10 11 12 13 14 17 19 21 21 20 20 20 20 21 23 25 27 28 29 30 32 31 28 26 25 26 27 26 22 17 17 18 19 20 21 22 22 22 22 22 22 21 19 18 18 20 21 22 23
32 30 28 25 22 20 17 16 14 13 12 11 11 12 13 14 15 16 17 18 18 18 18 18 19 20 19 17 16 16 16 16 17 16 14 11 11 12 13 14 15 17 19 19 19 19 20 21 21 22 25 28 30 30 31 33 33 29 25 24 26 29 29 26 21 19 19 20 20 21 20 21 21 20 20 20 20 19 19 18 17 18 20 22 23
32 30 28 25 22 20 18 16 14 13 13 12 12 13 14 15 15 16 16 17 17 18 18 18 18 19 19 18 17 17 17 16 16 15 13 12 12 13 13 15 16 16 18 19 20 20 20 20 22 24 28 30 31 31 31 30 28 25 25 27 29 29 26 23 21 20 19 18 17 18 18 17 17 17 17 17 17 18 18 18 19 20 21 23 24
32 30 28 25 23 20 18 16 15 14 13 13 13 13 14 15 15 15 16 16 17 17 17 17 18 18 18 17 17 16 16 15 14 14 12 12 12 12 13 15 16 17 18 19 18 18 20 22 25 27 29 29 29 28 27 26 24 24 27 28 26 23 18 16 16 15 15 14 15 15 16 16 15 16 17 17 18 20 20 21 22 23 23 24 24
32 31 28 26 24 21 19 17 15 14 14 14 14 14 15 15 14 15 15 16 16 17 16 16 17 16 16 16 15 14 13 12 11 12 12 11 11 12 14 16 17 17 17 16 17 19 22 24 26 27 27 26 25 26 26 25 24 24 23 22 19 16 13 13 13 14 14 14 15 15 16 17 17 17 18 20 21 22 22 22 22 23 24 24 24
33 31 29 26 24 21 19 17 16 15 14 14 14 14 14 14 14 14 15 15 16 16 16 16 15 15 14 13 12 11 11 11 11 10 10 11 13 16 18 17 15 14 15 16 18 20 22 23 24 24 24 23 22 22 21 21 20 18 17 16 15 14 13 14 15 15 16 16 16 17 17 18 18 19 20 20 21 21 21 21 22 22 22 22 22
33 31 29 26 23 21 19 17 16 15 15 15 14 14 14 14 14 14 14 15 15 15 15 15 14 13 11 10 10 11 11 11 10 9 9 12 17 20 20 16 13 12 14 16 17 19 23 25 24 21 19 18 16 14 14 14 14 14 14 14 13 12 13 14 14 15 15 16 16 17 18 18 19 19 19 19 19 20 19 20 21 22 22 22 22
32 30 27 24 22 20 19 17 16 15 15 14 14 14 14 14 14 14 13 14 15 15 14 13 12 11 10 11 13 14 12 10 9 9 11 16 18 19 17 15 12 11 13 14 17 21 25 24 20 17 15 14 12 12 12 12 12 12 12 12 12 11 12 12 12 12 13 15 16 17 18 18 18 19 19 19 19 20 19 19 21 22 22 22 22
30 27 25 23 22 20 18 17 16 15 14 14 14 14 14 14 14 14 14 14 14 14 13 13 12 13 15 16 17 16 13 10 10 12 15 17 17 17 16 15 13 13 13 14 18 22 22 19 15 13 12 12 12 12 12 13 13 12 12 12 12 12 11 11 11 12 13 15 16 17 18 19 19 19 19 19 19 20 20 20 21 22 22 22 22
28 26 25 24 22 20 18 17 15 14 14 14 14 13 13 13 14 15 13 13 12 12 13 15 15 15 17 18 16 15 15 14 14 16 17 16 16 17 16 14 13 13 13 15 19 20 18 14 12 10 10 10 11 11 11 12 13 14 14 13 12 12 12 11 11 12 14 15 16 17 17 18 19 19 19 19 20 21 21 21 22 22 22 21 21
29 28 26 24 21 19 17 16 15 14 14 13 13 13 12 12 13 13 12 11 10 10 11 14 14 14 15 15 14 14 15 16 16 16 16 16 16 15 14 13 12 11 12 15 17 16 13 11 10 9 9 9 9 9 10 10 11 13 14 13 12 12 12 11 12 14 15 14 15 16 16 17 18 19 19 20 21 21 21 21 21 21 21 20 21
30 28 26 23 20 18 17 16 15 14 13 12 12 12 11 10 11 11 12 11 10 10 11 13 12 11 11 12 13 14 14 14 14 15 15 15 15 14 12 12 13 11 12 15 15 12 10 9 8 8 8 8 8 8 8 9 9 10 12 13 13 13 12 12 16 18 17 15 14 15 16 17 17 18 19 20 21 21 21 21 20 20 20 20 20
29 27 24 21 20 18 17 16 15 13 12 12 11 11 10 10 9 10 12 12 11 10 10 11 11 12 12 12 12 13 14 14 14 14 14 14 13 12 12 15 15 13 12 13 12 9 8 8 7 7 7 8 8 8 7 8 9 9 10 11 12 13 15 18 19 18 15 13 13 14 16 17 18 18 19 20 20 20 20 20 20 20 20 20 20
28 25 22 20 19 18 17 16 14 13 12 12 11 10 10 10 10 10 11 12 12 11 9 9 10 12 14 14 12 11 12 12 12 12 13 12 10 11 14 17 16 12 11 11 10 8 7 7 7 7 7 7 8 8 8 9 10 10 10 10 11 14 18 19 16 13 13 13 14 16 16 17 17 18 19 19 19 19 20 19 19 19 19 19 20
27 24 21 19 18 18 17 15 14 13 12 11 11 10 10 10 10 10 9 10 12 13 13 11 9 9 11 13 13 11 9 10 11 11 10 10 11 13 16 16 13 11 11 11 10 7 6 6 6 7 7 9 10 11 11 11 12 12 11 12 14 17 19 17 13 13 13 14 15 17 16 16 16 17 18 19 19 19 19 19 19 19 20 20 20
26 24 22 20 19 17 16 15 14 12 12 11 10 10 10 10 10 9 9 10 11 13 15 15 12 9 8 10 12 11 9 9 9 9 9 11 14 15 14 13 12 11 12 12 11 9 8 7 7 8 10 12 13 14 14 14 14 14 15 16 18 20 20 17 15 15 15 16 17 17 17 17 17 17 17 18 18 18 19 19 20 20 21 21 21
26 24 22 21 19 17 16 14 13 12 11 10 10 10 10 10 10 10 10 10 11 13 15 15 15 12 8 7 9 11 10 10 8 8 9 12 13 13 12 11 11 11 11 12 12 12 12 11 10 11 12 13 14 15 16 16 16 17 18 18 19 20 19 18 16 16 16 17 18 18 18 18 18 17 17 18 19 18 19 19 20 20 21 22 21
24 23 21 19 17 16 15 13 12 12 11 10 10 10 10 11 10 10 10 11 12 13 14 15 16 14 11 8 7 9 10 10 8 7 9 10 10 11 11 11 11 11 11 12 12 12 13 13 12 12 13 14 14 15 16 16 17 17 18 19 19 19 18 16 15 15 15 16 17 18 19 19 18 18 18 18 19 19 19 20 20 20 21 21 20
22 20 18 17 16 15 14 13 13 12 11 11 11 11 11 11 11 10 11 11 12 13 14 15 16 14 12 9 7 8 9 8 6 7 9 10 9 10 11 11 12 12 11 12 12 12 13 14 13 13 14 14 14 15 15 16 17 17 18 19 18 18 16 15 15 16 15 15 16 16 17 18 19 18 17 17 18 19 19 20 20 20 21 21 21
22 20 18 17 16 15 14 13 13 13 12 12 12 12 12 11 11 11 11 12 13 14 14 15 15 14 11 9 7 7 8 8 7 10 13 13 12 11 11 11 12 12 12 12 13 13 14 15 15 15 15 15 15 15 15 15 16 17 18 18 17 16 16 15 15 15 15 14 15 16 18 20 20 19 18 19 19 19 19 19 19 20 20 21 22
21 20 18 17 16 15 14 14 14 13 13 12 12 12 11 10 10 11 12 13 14 14 15 15 15 13 11 9 7 6 9 11 13 14 16 15 13 13 12 11 12 12 12 13 13 14 15 15 15 16 16 15 15 15 15 15 15 16 17 17 16 16 16 15 15 16 16 15 16 18 20 22 22 20 20 21 21 20 20 19 19 20 20 20 21
20 19 18 17 17 16 15 15 14 13 12 12 11 11 10 10 10 11 12 13 14 15 16 16 15 13 11 10 8 7 10 14 16 16 15 14 14 13 13 12 12 12 12 13 13 14 15 16 16 16 16 16 15 16 16 16 15 15 16 17 16 17 17 16 15 16 17 17 18 22 25 26 24 23 23 23 21 19 19 20 19 19 19 19 20
18 18 17 17 17 16 15 15 14 13 12 12 11 10 10 10 11 12 13 13 14 15 17 17 15 14 12 11 10 10 12 14 15 14 14 14 14 14 13 13 13 13 13 13 13 14 15 17 17 17 16 16 15 15 15 16 16 15 15 16 16 16 16 16 15 16 18 19 21 24 27 26 24 24 25 24 20 18 18 19 19 18 18 19 19
18 18 17 17 16 16 16 15 14 13 12 11 11 11 11 11 12 13 13 14 15 16 17 17 16 15 14 13 12 13 14 14 14 14 14 14 14 14 14 14 14 14 15 15 14 14 16 17 17 18 18 17 16 16 15 15 15 15 15 15 16 16 16 16 15 17 20 22 22 23 25 27 26 24 23 23 22 20 18 18 19 19 18 19 18
19 18 18 18 18 18 17 16 14 13 12 12 12 12 11 12 13 13 14 15 16 17 18 18 17 17 16 15 15 15 15 15 15 15 15 15 15 15 15 15 16 16 16 16 16 16 17 18 18 19 19 18 18 18 17 16 15 15 15 15 15 16 16 16 16 18 22 23 23 23 24 28 29 26 23 24 25 22 20 19 20 18 18 18 18
19 18 18 19 19 18 17 16 14 13 13 13 12 12 12 13 14 14 15 15 16 18 19 19 19 18 18 17 17 17 16 16 17 17 17 17 17 17 17 17 17 17 18 18 17 17 18 18 19 20 20 20 20 20 19 18 18 16 15 15 15 16 15 15 16 18 20 22 22 23 25 27 28 27 26 26 26 24 23 23 22 20 18 18 18
18 18 18 18 18 18 17 15 14 14 13 13 12 12 13 14 14 15 16 16 17 19 20 21 20 20 19 18 18 18 18 18 18 18 19 19 18 18 18 18 18 18 19 18 18 18 18 18 19 20 21 21 21 21 20 20 20 19 18 17 16 16 16 15 16 18 18 19 21 24 26 26 26 25 25 25 25 25 25 24 23 22 21 19 17
18 17 18 18 18 17 17 16 15 14 13 12 12 13 14 15 15 16 16 17 18 19 21 21 21 20 19 19 18 18 18 18 19 19 19 19 19 19 18 18 19 19 19 19 18 18 18 18 19 20 21 21 21 21 21 21 21 21 20 19 18 17 17 17 17 17 17 17 20 23 25 25 24 23 23 24 23 23 23 23 22 23 22 19 16
17 17 18 18 18 17 16 15 14 13 13 12 12 13 14 15 16 16 17 17 18 19 20 21 21 20 19 19 18 18 17 18 19 19 19 19 19 18 18 19 19 19 19 19 18 18 18 18 18 19 20 21 21 21 21 21 21 21 21 21 20 18 18 17 17 17 17 18 19 21 23 25 24 22 21 21 21 21 22 22 21 21 21 19 18
17 17 17 17 17 16 15 14 14 13 13 13 13 14 14 15 16 17 17 17 18 19 20 21 21 20 20 19 19 18 18 18 19 19 19 19 18 18 18 18 18 18 19 19 18 18 18 18 18 19 20 20 21 21 21 21 21 21 21 21 21 20 19 18 17 16 16 18 20 20 21 23 24 22 20 20 20 20 21 21 21 21 20 20 20
16 16 16 17 17 16 15 15 14 14 14 13 13 14 15 16 17 17 18 18 19 20 21 21 21 21 21 20 20 19 19 19 19 19 19 19 18 18 18 18 19 19 20 20 20 19 19 19 19 19 20 20 21 21 21 21 21 21 21 21 21 20 19 19 18 17 17 19 20 19 19 19 21 20 18 18 18 19 19 20 20 20 20 20 20
Wind_Direction
150 146 142 138 132 125 121 114 107 100 91 80 69 63 59 53 49 43 37 31 25 20 17 13 12 10 7 6 3 1 1 359 358 358 357 356 354 352 351 350 348 345 341 340 338 335 331 326 322 320 317 312 308 308 305 302 300 295 291 289 285 281 281 279 279 286 290 288 285 287 291 293 293 294 296 300 302 302 300 298 297 295 292 293 295
158 154 150 147 142 135 132 125 118 111 98 80 69 62 57 51 45 38 31 24 18 15 13 10 9 7 5 3 2 1 359 357 356 356 355 353 351 350 348 346 344 341 339 337 334 332 328 321 317 316 314 310 306 304 302 299 298 295 291 289 286 283 281 281 281 285 289 292 290 290 292 291 291 294 298 298 299 300 298 295 295 294 292 292 292
164 162 158 156 153 149 146 142 135 124 105 87 76 66 56 45 35 27 21 15 10 8 6 4 2 1 0 360 360 359 357 355 354 353 352 351 349 347 344 342 341 339 336 334 331 329 326 318 315 315 314 312 308 305 302 299 298 296 292 291 288 286 284 281 281 283 287 292 293 294 296 294 291 294 297 297 298 298 296 294 293 290 289 289 287
169 168 166 166 165 163 162 156 149 140 128 108 82 60 45 34 26 18 12 7 3 360 358 357 357 356 356 356 356 356 354 352 352 351 350 348 346 343 341 340 339 337 334 331 328 324 321 314 312 314 313 310 307 306 304 302 301 298 295 294 291 290 290 285 282 284 287 291 294 296 299 299 296 297 298 298 297 295 294 294 294 291 288 285 282
175 174 175 176 174 174 173 167 163 160 150 121 75 52 38 28 18 10 5 360 356 355 353 352 353 353 353 353 354 354 352 350 349 349 348 345 343 341 340 338 336 334 332 329 324 320 316 311 311 313 312 309 308 308 307 306 304 301 297 297 296 294 294 290 288 287 287 289 294 297 300 301 300 300 300 301 299 297 295 293 293 293 292 289 284
180 180 182 183 182 180 180 177 175 173 163 131 81 52 32 19 9 1 357 354 352 351 350 349 349 350 350 351 353 352 350 348 348 347 345 343 341 339 338 335 332 331 329 324 319 315 313 311 310 311 311 309 309 310 309 308 306 303 300 300 300 299 296 295 293 291 289 289 293 297 301 303 304 304 303 302 299 299 300 299 295 293 292 294 292
185 186 188 188 187 185 185 184 183 180 172 144 81 38 18 6 359 354 350 349 348 347 346 345 345 346 347 348 350 350 349 347 347 345 343 342 340 336 333 331 328 326 323 318 316 314 311 310 309 307 306 305 307 309 310 309 306 303 302 303 303 302 300 300 299 297 294 293 293 297 300 303 305 305 304 303 299 297 298 300 299 297 296 296 297
189 190 191 191 190 189 189 189 189 187 181 152 46 13 3 356 351 347 344 343 342 341 341 340 340 341 341 343 347 348 347 346 346 344 342 341 337 331 329 328 326 322 316 311 311 308 305 306 304 302 300 300 302 304 303 303 302 301 302 303 303 304 303 303 303 301 298 296 295 297 300 302 304 304 305 306 304 301 304 308 306 304 303 300 297
191 192 193 192 193 192 192 193 193 192 188 186 349 353 351 347 343 340 338 337 336 335 335 335 336 337 337 339 343 346 345 344 343 342 341 338 333 328 326 324 320 315 309 305 304 302 301 301 299 296 294 295 298 297 295 295 294 295 298 301 302 302 302 302 302 300 299 297 297 300 302 302 305 308 307 306 304 302 305 307 303 299 301 300 295
193 194 194 194 195 193 193 196 197 197 204 236 308 340 341 338 335 333 332 330 330 330 330 330 332 332 334 336 339 343 342 340 339 339 338 334 328 324 321 317 312 306 304 304 302 301 300 297 296 296 295 297 298 296 293 292 289 289 292 296 298 299 300 300 299 299 299 298 299 302 302 300 303 306 305 305 305 302 303 303 300 298 300 298 294
194 195 195 196 195 194 196 198 200 206 217 244 309 335 332 328 326 326 326 325 325 326 326 327 328 329 331 332 336 341 340 336 336 335 333 329 324 319 314 310 304 299 300 302 300 301 301 300 299 300 299 300 299 297 295 294 292 291 291 292 293 294 296 297 297 298 297 295 296 298 297 296 298 299 300 302 303 301 302 303 301 300 300 298 297
195 195 196 197 195 195 199 200 204 215 224 256 314 326 321 319 319 320 321 321 322 323 323 324 326 327 328 330 334 338 337 334 332 331 328 326 321 315 309 304 300 296 297 298 298 300 302 301 301 301 299 299 298 297 296 295 295 294 293 292 291 290 289 290 292 293 292 292 292 292 292 292 294 296 298 300 301 300 300 300 297 295 294 292 292
196 196 197 198 197 198 201 204 209 218 231 278 307 312 309 310 313 314 316 319 320 321 321 322 325 328 328 329 331 335 336 332 329 328 326 322 320 315 307 300 295 293 294 294 294 297 299 301 302 300 298 297 296 296 295 296 297 296 293 292 290 287 286 285 286 286 285 286 286 286 287 288 290 292 294 297 297 295 293 291 289 289 289 289 290
196 197 198 198 199 201 204 208 213 223 244 279 293 298 301 305 308 310 314 317 318 320 320 321 325 328 329 328 329 333 335 329 326 327 324 320 320 316 304 297 292 290 290 290 291 293 295 297 297 297 297 297 294 294 295 295 295 293 290 287 287 285 284 283 283 282 280 279 279 280 283 283 283 285 287 288 286 284 283 282 283 287 289 290 290
197 198 199 201 202 204 208 211 216 230 252 271 283 290 296 300 304 309 314 316 317 318 319 321 324 327 328 327 326 330 333 329 325 324 322 320 319 310 299 295 290 288 289 289 288 290 292 293 292 293 294 294 291 291 293 293 292 290 286 284 284 282 280 280 280 279 279 276 274 275 276 276 278 279 280 280 279 280 282 283 286 291 293 293 292
197 200 202 204 205 207 210 214 221 236 252 264 276 284 292 298 303 309 313 314 315 316 317 319 322 324 327 327 324 326 331 328 323 321 320 319 315 305 298 294 289 287 289 289 288 288 288 290 290 289 290 291 290 290 291 292 292 289 285 283 283 281 278 278 275 273 277 278 277 277 277 277 278 280 281 282 283 286 290 290 292 296 295 294 292
201 203 205 206 208 210 213 217 226 238 249 260 270 280 290 297 302 308 311 311 311 314 315 317 320 323 327 327 324 324 328 328 323 320 320 318 313 304 298 293 290 289 290 290 291 289 287 286 286 287 289 290 290 291 293 293 292 289 287 286 284 280 278 278 274 273 282 288 289 288 288 287 287 287 289 289 289 291 293 292 293 294 292 291 291
205 206 207 208 210 212 215 221 230 239 247 256 268 282 291 297 303 306 307 307 309 312 314 316 318 322 326 327 325 322 324 326 322 318 318 318 313 304 297 291 290 291 292 292 290 288 286 286 286 285 286 288 290 292 294 293 292 290 289 287 283 279 279 281 277 276 283 288 289 291 291 291 290 290 290 289 288 288 287 286 288 289 286 284 286
208 208 208 209 211 214 218 224 232 238 247 259 272 284 291 296 300 303 303 305 307 310 313 315 317 320 324 325 324 321 320 321 319 317 317 317 312 303 296 292 290 290 291 292 292 292 293 293 291 289 288 290 293 295 296 296 294 291 288 285 283 281 281 282 279 278 279 279 279 283 285 284 285 285 285 285 284 282 280 281 283 284 282 282 285
210 208 208 210 212 215 219 226 233 239 250 264 274 282 289 293 296 299 300 302 304 307 311 313 313 317 321 322 323 320 316 316 317 316 315 317 313 302 295 291 291 291 291 292 294 297 298 296 294 293 294 295 297 298 298 296 292 290 287 286 285 286 289 291 290 290 291 290 289 287 286 286 286 284 283 283 282 280 278 278 278 278 278 281 281
209 207 208 210 213 216 221 227 233 242 252 263 272 279 286 290 293 296 297 299 301 305 308 311 311 314 319 322 322 319 315 315 315 314 316 319 312 301 296 293 292 295 295 294 295 296 297 296 296 297 299 299 299 298 297 294 295 295 295 292 292 297 304 308 309 308 306 303 299 293 290 288 285 282 281 281 281 280 278 276 276 276 276 276 278
208 208 209 211 214 218 222 228 233 243 253 261 269 277 282 287 290 292 294 296 299 302 306 309 311 314 318 321 321 318 315 313 311 315 322 323 310 301 299 296 296 298 298 297 296 295 295 296 297 297 298 297 298 299 299 300 304 306 305 304 305 308 311 313 313 310 304 300 296 292 288 286 283 282 282 282 282 281 280 278 278 278 275 273 273
207 208 210 211 215 218 222 228 234 243 253 260 267 274 279 282 285 288 291 294 297 301 305 309 311 314 318 321 321 321 318 313 314 323 329 321 309 306 303 301 301 301 297 296 296 296 297 298 297 298 299 300 302 304 305 307 309 309 307 308 310 311 310 309 308 306 303 299 295 292 289 286 286 286 286 286 287 287 285 284 281 278 277 276 274
206 208 210 211 215 218 221 228 235 242 251 260 265 270 274 278 281 285 288 291 296 300 304 308 311 314 317 320 323 325 323 319 318 323 322 313 311 313 310 307 307 303 298 296 296 299 301 302 302 304 306 307 308 308 307 308 310 309 308 311 313 313 313 310 309 308 305 299 295 291 289 288 288 288 288 289 291 290 288 286 282 277 275 275 276
205 207 209 211 214 217 220 226 234 241 249 256 262 266 270 274 277 282 285 289 293 297 302 306 309 311 315 320 325 327 325 317 311 311 314 319 324 323 316 312 310 306 303 302 304 305 305 306 309 310 311 310 310 309 306 305 307 311 313 317 320 320 318 315 313 310 305 299 295 291 290 290 290 289 290 292 292 291 290 287 283 280 277 275 274
205 206 208 210 212 214 219 225 231 239 247 253 258 263 267 271 274 278 283 286 290 294 299 302 305 308 314 320 322 319 314 309 304 302 308 320 330 332 328 322 315 310 309 310 309 308 308 310 313 312 310 309 309 309 308 309 313 319 323 326 327 324 321 319 316 310 304 300 297 293 292 294 295 294 294 294 292 290 290 289 286 283 282 279 276
206 206 206 208 210 213 219 224 228 236 244 249 255 261 265 268 272 275 280 285 288 292 295 297 301 307 312 315 315 311 307 304 301 300 305 317 325 329 328 325 320 317 317 315 309 305 307 311 313 313 313 314 316 317 319 321 323 327 329 330 328 323 319 316 312 307 304 302 299 297 296 298 298 298 297 296 292 290 289 289 287 286 285 284 281
207 207 207 208 212 215 218 222 228 235 243 249 255 260 264 268 272 275 280 283 284 287 289 290 295 303 308 309 308 306 302 299 295 299 311 317 318 318 318 320 322 325 326 320 308 305 310 316 322 327 330 331 332 331 329 327 325 325 325 325 323 319 318 316 313 310 309 306 304 303 302 302 301 301 300 298 295 293 293 292 290 290 291 289 285
207 208 209 210 214 216 217 223 229 235 244 251 255 259 264 269 272 275 277 279 281 285 287 289 298 308 309 305 303 298 294 294 296 301 307 309 308 310 314 318 320 326 328 318 307 310 318 326 333 338 338 335 335 335 333 332 329 326 325 325 323 322 322 322 321 319 316 313 309 307 306 305 304 303 303 301 299 298 299 297 296 295 294 290 285
205 208 210 212 214 216 219 225 230 235 243 250 254 258 264 269 273 276 279 281 286 289 285 285 295 304 301 299 299 291 285 290 297 301 303 305 305 309 314 316 318 325 323 311 309 316 325 331 334 336 334 331 331 329 329 329 327 327 329 329 326 325 324 323 324 322 318 315 311 307 305 305 304 304 305 304 303 302 301 300 299 297 295 291 287
206 208 211 213 215 218 222 227 231 235 240 246 252 257 261 266 273 280 283 282 284 278 267 268 279 287 286 288 291 285 284 290 296 298 301 304 306 312 316 317 322 328 319 309 312 321 328 329 330 331 328 323 319 317 319 320 321 324 326 326 326 326 322 318 321 321 317 313 311 309 307 305 304 304 304 303 303 303 302 301 300 297 295 293 291
209 211 213 215 217 220 223 227 230 233 238 243 249 255 260 263 270 278 282 282 281 275 265 262 267 272 275 282 287 287 288 292 294 298 302 303 307 314 316 311 315 320 312 308 314 323 327 326 322 319 316 310 305 309 311 311 313 316 317 319 322 323 319 319 324 324 317 310 309 311 310 307 305 304 303 303 303 302 302 301 300 299 298 297 296
212 215 215 215 216 218 221 225 228 231 235 240 246 252 259 265 269 275 281 283 283 279 269 259 257 261 267 275 284 289 290 291 294 299 300 301 308 317 310 303 308 312 307 309 319 327 325 317 307 303 302 298 299 304 303 304 310 312 311 312 314 318 325 330 330 324 313 306 309 312 311 310 308 306 304 303 302 301 301 300 300 300 301 301 302
213 215 216 216 217 218 220 223 225 227 231 237 243 249 256 264 270 275 280 285 288 288 276 261 260 266 268 270 277 285 289 293 295 296 299 305 313 311 303 304 310 313 311 318 328 327 315 306 298 295 295 297 303 307 304 310 319 318 312 310 312 319 328 331 325 314 308 309 314 316 314 312 311 308 306 305 303 301 300 300 300 301 301 302 303
211 213 214 216 216 217 219 220 221 224 228 232 239 248 254 261 267 271 276 283 289 292 290 284 282 281 273 269 271 275 282 292 296 296 299 305 302 297 300 308 315 316 320 329 334 324 310 302 296 296 303 312 319 320 317 319 323 322 319 319 320 324 327 324 314 309 313 317 318 318 317 316 313 310 307 305 303 302 301 301 301 301 300 300 300
209 210 211 212 213 214 215 217 219 222 226 230 237 245 252 257 261 264 271 279 286 291 293 293 295 297 285 272 269 268 268 278 291 296 295 291 291 296 305 313 317 319 325 332 332 324 318 312 305 309 317 322 324 326 325 323 325 327 328 327 326 326 324 318 313 315 320 322 323 323 321 319 316 314 311 308 305 304 303 302 302 301 300 300 300
210 211 211 211 212 211 212 215 217 219 224 230 236 242 248 253 256 259 268 278 284 289 292 295 298 302 299 281 271 268 264 262 265 272 275 279 288 301 308 310 314 319 323 327 326 324 324 324 320 319 321 323 323 325 326 327 329 331 332 332 330 326 321 316 318 324 327 327 328 326 324 322 319 318 316 312 310 308 307 306 305 303 302 303 302
212 214 214 212 210 209 209 211 214 217 221 228 235 240 244 248 253 260 269 276 281 283 287 291 295 299 303 297 281 273 274 274 268 263 267 275 291 304 306 307 312 316 318 322 323 320 320 322 321 320 321 324 325 326 328 330 332 332 332 333 332 327 321 319 324 329 331 331 331 329 326 324 323 321 319 314 312 312 312 310 310 308 306 305 304
209 211 212 209 207 208 209 210 212 217 222 228 233 237 241 245 253 262 269 274 277 279 282 286 290 294 300 302 289 277 283 291 286 280 286 294 303 306 304 304 307 310 314 319 320 317 316 317 318 320 322 325 326 327 328 330 332 332 333 333 330 324 320 322 327 330 331 333 333 331 329 327 325 323 320 316 313 313 313 313 312 311 308 307 307
205 205 205 204 205 207 209 211 215 219 223 227 230 234 239 247 256 263 267 270 273 277 280 283 287 292 297 299 290 281 286 290 283 283 292 299 303 303 302 301 303 307 311 315 316 317 317 317 319 321 323 324 324 326 327 328 329 331 333 333 330 323 318 320 326 328 330 333 334 331 330 330 328 326 323 321 318 316 314 314 314 314 311 309 307
205 203 202 203 206 208 209 212 216 220 221 224 229 235 242 251 259 262 265 268 272 277 280 282 284 290 295 293 283 273 275 275 274 278 287 293 295 296 296 296 298 301 305 309 312 313 314 316 318 320 321 323 323 323 325 325 326 327 329 331 331 326 318 317 321 325 326 330 332 332 333 334 331 327 324 323 322 319 317 316 317 317 315 312 309
203 202 202 204 206 209 212 214 216 219 221 225 232 239 247 254 258 260 264 269 273 277 279 281 284 289 291 289 282 266 261 264 267 273 281 285 286 288 290 291 292 295 297 301 305 306 307 311 313 315 317 321 321 321 323 323 321 322 324 327 329 327 321 317 319 324 326 327 329 331 336 338 337 334 332 329 323 319 318 318 317 317 316 315 314
203 202 205 207 209 211 214 216 217 219 222 228 235 242 247 253 256 259 264 268 272 274 276 279 284 287 287 286 282 271 264 266 269 272 275 278 281 285 288 288 289 290 292 294 297 299 301 304 307 309 312 316 317 318 320 320 317 315 317 320 324 325 322 317 317 322 327 327 326 329 335 339 338 337 338 334 326 318 316 316 315 315 315 317 318
201 201 203 206 209 212 214 215 217 220 223 228 235 241 245 251 255 259 263 266 269 272 275 277 282 285 285 285 283 278 274 276 277 276 277 278 281 284 286 287 288 288 289 291 293 294 296 299 301 304 307 310 313 314 315 316 314 310 309 311 314 316 317 316 315 320 326 326 321 322 330 338 339 337 336 335 331 325 319 317 317 316 317 319 321
200 201 202 205 209 212 214 214 217 220 222 227 234 239 245 251 255 258 263 266 270 273 275 277 280 282 283 284 283 281 280 280 281 281 281 282 283 284 285 286 286 286 287 290 292 293 294 296 298 301 303 305 308 309 310 311 311 307 302 301 302 303 308 313 314 317 324 327 321 316 323 335 340 340 338 337 335 331 325 323 323 320 317 319 322
200 201 204 208 211 212 214 215 216 219 222 228 234 241 247 252 256 260 264 267 270 273 275 277 278 278 279 281 282 282 282 282 282 283 283 283 284 286 286 286 286 286 287 288 289 289 292 294 295 298 300 301 303 305 305 306 308 307 302 297 293 291 295 303 306 309 318 327 324 316 318 329 337 340 342 342 340 337 334 333 332 329 324 321 319
201 203 207 211 213 214 215 216 217 221 226 230 237 245 251 255 259 262 264 267 270 273 274 276 276 276 277 279 280 281 282 283 282 283 284 284 286 287 287 287 287 286 286 288 289 289 291 292 293 295 298 298 299 301 301 302 303 304 302 300 295 289 287 292 296 299 308 321 323 317 317 324 332 338 343 344 343 341 339 337 336 338 337 332 325
202 206 210 213 215 217 218 219 220 224 230 235 242 249 254 258 261 263 265 268 270 272 274 276 277 277 278 279 279 280 281 282 282 283 284 285 286 287 287 287 287 287 288 290 291 291 292 293 294 295 296 298 299 300 300 299 300 300 299 299 298 294 289 287 288 290 299 312 318 318 319 322 327 334 342 345 344 344 342 339 339 341 342 338 333
205 209 212 215 218 221 223 224 226 230 234 239 245 250 255 259 262 264 267 270 271 273 275 276 277 278 279 279 279 280 281 282 283 284 285 285 286 286 286 286 287 289 290 291 293 294 295 296 297 297 297 298 299 300 300 300 299 298 298 298 298 297 294 290 286 285 292 302 311 317 322 323 324 330 338 343 344 347 349 347 345 345 346 344 344
209 212 216 219 223 226 228 229 232 234 237 241 246 251 256 260 264 266 269 272 273 275 276 278 279 281 281 280 280 281 283 284 284 285 285 286 286 286 286 286 288 289 291 293 295 297 298 298 299 299 299 299 300 300 301 301 300 299 299 298 297 297 297 295 289 285 288 296 304 314 322 324 322 324 332 339 343 347 351 353 352 352 353 353 353
212 215 219 223 227 230 231 232 234 237 239 243 249 255 260 264 267 269 271 272 274 276 278 280 281 282 281 280 280 281 282 283 284 284 284 286 287 287 288 289 290 291 293 294 296 297 298 299 300 300 300 300 301 301 301 302 301 300 300 299 298 297 297 298 296 291 288 291 298 307 317 321 320 320 327 335 339 342 345 349 353 356 358 359 359